User: anonymous   Login
Location: Drayton Valley
(53.2170°N, 114.9830°W)
Time: 17:46:28
(UTC-06:00)
Language:

Cosmos 1302 Rocket - Orbit

View from above orbital plane
View from above orbital plane
View from above satellite
View from above satellite

Ground track
Ground track

The orbit data is extracted from the following two-line orbital elements,

1 12792U 81084B   15085.53265318  .00000117  00000-0  48081-4 0  9998
2 12792 074.0279 093.0351 0014574 220.3815 245.5908 14.37270062758156
Epoch (UTC): 26 March 2015 12:47:01
Eccentricity: 0.0014574
inclination: 74.0279°
perigee height: 757 km
apogee height: 778 km
right ascension of ascending node: 93.0351°
argument of perigee: 220.3815°
revolutions per day: 14.37270062
mean anomaly at epoch: 245.5908°
orbit number at epoch: 75815

The dashed part of the orbit path shows where the satellite is in the earth's shadow,  

DLR